Time,TemperatureF,DewpointF,PressureIn,WindDirection,WindDirectionDegrees,WindSpeedMPH,WindSpeedGustMPH,Humidity,HourlyPrecipIn,Conditions,Clouds,dailyrainin,SoftwareType,DateUTC
2013-07-10 00:01:00,86.0,68.5,27.42,SE,135,0.7,1.8,56,0.05,,,0.00,WUHU216HW,2013-07-10 07:01:00,
2013-07-10 00:06:00,85.3,68.9,27.43,WSW,248,0.7,1.3,58,0.05,,,0.00,WUHU216HW,2013-07-10 07:06:00,
2013-07-10 00:11:00,84.6,69.3,27.43,West,270,0.4,1.3,60,0.06,,,0.01,WUHU216HW,2013-07-10 07:11:00,
2013-07-10 00:16:00,84.2,69.4,27.44,SSW,203,1.1,1.1,61,0.06,,,0.01,WUHU216HW,2013-07-10 07:16:00,
2013-07-10 00:21:00,83.7,69.3,27.44,South,180,2.5,4.9,62,0.07,,,0.02,WUHU216HW,2013-07-10 07:21:00,
2013-07-10 00:26:00,83.0,68.6,27.44,SW,225,2.7,4.9,62,0.08,,,0.03,WUHU216HW,2013-07-10 07:26:00,
2013-07-10 00:31:00,82.3,68.3,27.44,SW,225,1.8,3.1,63,0.08,,,0.03,WUHU216HW,2013-07-10 07:31:00,
2013-07-10 00:36:00,81.7,68.3,27.44,SW,225,2.9,4.0,64,0.08,,,0.03,WUHU216HW,2013-07-10 07:36:00,
2013-07-10 00:41:00,81.2,68.2,27.45,SSW,203,1.1,4.0,65,0.08,,,0.03,WUHU216HW,2013-07-10 07:41:00,
2013-07-10 00:46:00,80.3,67.9,27.46,West,270,1.1,2.5,66,0.06,,,0.03,WUHU216HW,2013-07-10 07:46:00,
2013-07-10 00:51:00,79.6,67.1,27.46,WNW,293,1.8,2.2,66,0.04,,,0.03,WUHU216HW,2013-07-10 07:51:00,
2013-07-10 00:56:00,79.4,67.1,27.46,WSW,248,0.4,1.8,66,0.03,,,0.03,WUHU216HW,2013-07-10 07:56:00,
2013-07-10 01:01:00,79.2,66.9,27.46,WSW,248,0.9,1.6,66,0.03,,,0.03,WUHU216HW,2013-07-10 08:01:00,
2013-07-10 01:06:00,78.8,66.1,27.45,SW,225,1.3,1.8,65,0.03,,,0.03,WUHU216HW,2013-07-10 08:06:00,
2013-07-10 01:11:00,78.7,65.4,27.46,West,270,0.2,1.8,64,0.02,,,0.03,WUHU216HW,2013-07-10 08:11:00,
2013-07-10 01:16:00,78.7,65.4,27.46,NNW,338,0.4,1.3,64,0.01,,,0.03,WUHU216HW,2013-07-10 08:16:00,
2013-07-10 01:21:00,78.7,65.4,27.45,North,0,0.9,1.1,64,0.00,,,0.03,WUHU216HW,2013-07-10 08:21:00,
2013-07-10 01:26:00,78.7,65.4,27.45,WNW,293,0.4,1.3,64,0.00,,,0.03,WUHU216HW,2013-07-10 08:26:00,
2013-07-10 01:31:00,78.5,65.7,27.43,WNW,293,0.4,1.3,65,0.00,,,0.03,WUHU216HW,2013-07-10 08:31:00,
2013-07-10 01:36:00,77.9,65.3,27.43,West,270,0.7,1.1,65,0.00,,,0.03,WUHU216HW,2013-07-10 08:36:00,
2013-07-10 01:41:00,77.8,65.5,27.42,West,270,0.7,0.7,66,0.00,,,0.03,WUHU216HW,2013-07-10 08:41:00,
2013-07-10 01:46:00,77.6,65.4,27.40,West,270,0.0,0.7,66,0.00,,,0.03,WUHU216HW,2013-07-10 08:46:00,
2013-07-10 01:51:00,77.8,65.5,27.39,SSW,203,0.7,0.7,66,0.00,,,0.03,WUHU216HW,2013-07-10 08:51:00,
2013-07-10 01:56:00,77.8,65.5,27.40,South,180,0.4,1.8,66,0.00,,,0.03,WUHU216HW,2013-07-10 08:56:00,
2013-07-10 02:01:00,77.8,65.5,27.40,South,180,0.0,1.8,66,0.00,,,0.03,WUHU216HW,2013-07-10 09:01:00,
2013-07-10 02:06:00,77.8,65.5,27.40,ESE,113,0.9,0.9,66,0.00,,,0.03,WUHU216HW,2013-07-10 09:06:00,
2013-07-10 02:11:00,77.6,65.4,27.40,South,180,1.6,1.8,66,0.00,,,0.03,WUHU216HW,2013-07-10 09:11:00,
2013-07-10 02:16:00,77.4,65.2,27.40,SSE,158,0.0,1.8,66,0.00,,,0.03,WUHU216HW,2013-07-10 09:16:00,
2013-07-10 02:21:00,77.4,65.6,27.41,ENE,68,0.0,1.3,67,0.00,,,0.03,WUHU216HW,2013-07-10 09:21:00,
2013-07-10 02:26:00,77.4,65.6,27.41,NNE,23,0.0,1.1,67,0.00,,,0.03,WUHU216HW,2013-07-10 09:26:00,
2013-07-10 02:31:00,77.2,65.9,27.41,ESE,113,2.5,2.5,68,0.00,,,0.03,WUHU216HW,2013-07-10 09:31:00,
2013-07-10 02:36:00,77.2,65.9,27.41,SE,135,0.9,2.5,68,0.00,,,0.03,WUHU216HW,2013-07-10 09:36:00,
2013-07-10 02:41:00,77.0,65.7,27.42,ENE,68,0.4,1.8,68,0.00,,,0.03,WUHU216HW,2013-07-10 09:41:00,
2013-07-10 02:46:00,77.0,65.3,27.42,East,90,0.0,1.8,67,0.00,,,0.03,WUHU216HW,2013-07-10 09:46:00,
2013-07-10 02:51:00,77.2,65.4,27.42,ESE,113,0.0,0.7,67,0.00,,,0.03,WUHU216HW,2013-07-10 09:51:00,
2013-07-10 02:56:00,77.2,65.4,27.42,NNE,23,0.4,0.7,67,0.00,,,0.03,WUHU216HW,2013-07-10 09:56:00,
2013-07-10 03:01:00,77.2,65.4,27.43,NE,45,0.0,0.4,67,0.00,,,0.03,WUHU216HW,2013-07-10 10:01:00,
2013-07-10 03:06:00,77.2,65.4,27.42,NE,45,0.0,0.0,67,0.00,,,0.03,WUHU216HW,2013-07-10 10:06:00,
2013-07-10 03:11:00,77.4,65.6,27.42,NE,45,0.0,0.0,67,0.00,,,0.03,WUHU216HW,2013-07-10 10:11:00,
2013-07-10 03:16:00,77.4,65.6,27.42,NE,45,0.0,0.0,67,0.00,,,0.03,WUHU216HW,2013-07-10 10:16:00,
2013-07-10 03:21:00,77.4,65.6,27.42,WSW,248,0.0,0.0,67,0.00,,,0.03,WUHU216HW,2013-07-10 10:21:00,
2013-07-10 03:26:00,77.4,66.1,27.42,WSW,248,0.0,0.0,68,0.00,,,0.03,WUHU216HW,2013-07-10 10:26:00,
2013-07-10 03:31:00,77.4,66.1,27.42,SSW,203,0.0,0.4,68,0.00,,,0.03,WUHU216HW,2013-07-10 10:31:00,
2013-07-10 03:36:00,77.4,66.1,27.42,SSW,203,0.0,0.4,68,0.00,,,0.03,WUHU216HW,2013-07-10 10:36:00,
2013-07-10 03:41:00,77.2,65.9,27.41,SSW,203,0.0,0.0,68,0.00,,,0.03,WUHU216HW,2013-07-10 10:41:00,
2013-07-10 03:46:00,77.2,65.9,27.42,NNW,338,0.2,0.4,68,0.00,,,0.03,WUHU216HW,2013-07-10 10:46:00,
2013-07-10 03:51:00,77.2,65.9,27.42,North,0,0.0,0.4,68,0.00,,,0.03,WUHU216HW,2013-07-10 10:51:00,
2013-07-10 03:56:00,77.0,66.2,27.42,NNW,338,0.0,0.4,69,0.00,,,0.03,WUHU216HW,2013-07-10 10:56:00,
2013-07-10 04:01:00,77.0,66.2,27.41,SW,225,0.4,0.4,69,0.00,,,0.03,WUHU216HW,2013-07-10 11:01:00,
2013-07-10 04:06:00,76.9,66.0,27.41,SSW,203,0.0,0.4,69,0.00,,,0.03,WUHU216HW,2013-07-10 11:06:00,
2013-07-10 04:11:00,77.0,66.2,27.42,SSW,203,0.0,0.4,69,0.00,,,0.03,WUHU216HW,2013-07-10 11:11:00,
2013-07-10 04:16:00,76.9,66.0,27.42,SSW,203,0.0,0.0,69,0.00,,,0.03,WUHU216HW,2013-07-10 11:16:00,
2013-07-10 04:21:00,76.9,66.0,27.41,SW,225,0.0,0.0,69,0.00,,,0.03,WUHU216HW,2013-07-10 11:21:00,
2013-07-10 04:26:00,76.9,66.0,27.41,NNW,338,0.0,0.0,69,0.00,,,0.03,WUHU216HW,2013-07-10 11:26:00,
2013-07-10 04:31:00,76.7,65.8,27.41,NNW,338,0.0,0.0,69,0.00,,,0.03,WUHU216HW,2013-07-10 11:31:00,
2013-07-10 04:36:00,76.7,65.8,27.41,NNW,338,0.0,0.0,69,0.00,,,0.03,WUHU216HW,2013-07-10 11:36:00,
2013-07-10 04:41:00,76.7,66.2,27.42,NNW,338,0.0,0.0,70,0.00,,,0.03,WUHU216HW,2013-07-10 11:41:00,
2013-07-10 04:46:00,76.7,66.2,27.41,NNW,338,0.0,0.0,70,0.00,,,0.03,WUHU216HW,2013-07-10 11:46:00,
2013-07-10 04:51:00,76.7,66.2,27.42,NNW,338,0.0,0.0,70,0.00,,,0.03,WUHU216HW,2013-07-10 11:51:00,
2013-07-10 04:56:00,76.5,66.1,27.42,NNW,338,0.0,0.0,70,0.00,,,0.03,WUHU216HW,2013-07-10 11:56:00,
2013-07-10 05:01:00,76.5,66.4,27.42,NNW,338,0.0,0.0,71,0.00,,,0.03,WUHU216HW,2013-07-10 12:01:00,
2013-07-10 05:06:00,76.5,66.4,27.42,NNW,338,0.0,0.2,71,0.00,,,0.03,WUHU216HW,2013-07-10 12:06:00,
2013-07-10 05:11:00,76.5,66.4,27.42,NNW,338,0.0,0.2,71,0.00,,,0.03,WUHU216HW,2013-07-10 12:11:00,
2013-07-10 05:16:00,76.5,66.4,27.42,NNW,338,0.0,0.0,71,0.00,,,0.03,WUHU216HW,2013-07-10 12:16:00,
2013-07-10 05:21:00,76.3,66.2,27.43,NNW,338,0.0,0.2,71,0.00,,,0.03,WUHU216HW,2013-07-10 12:21:00,
2013-07-10 05:26:00,76.3,66.2,27.43,North,0,0.0,0.2,71,0.00,,,0.03,WUHU216HW,2013-07-10 12:26:00,
2013-07-10 05:31:00,76.3,66.2,27.43,North,0,0.0,0.0,71,0.00,,,0.03,WUHU216HW,2013-07-10 12:31:00,
2013-07-10 05:36:00,76.3,66.2,27.43,East,90,0.0,0.2,71,0.00,,,0.03,WUHU216HW,2013-07-10 12:36:00,
2013-07-10 05:41:00,76.3,66.7,27.43,ESE,113,0.0,0.2,72,0.00,,,0.03,WUHU216HW,2013-07-10 12:41:00,
2013-07-10 05:46:00,76.3,66.7,27.43,SE,135,0.4,0.4,72,0.00,,,0.03,WUHU216HW,2013-07-10 12:46:00,
2013-07-10 05:51:00,76.1,66.9,27.43,SE,135,0.4,0.9,73,0.00,,,0.03,WUHU216HW,2013-07-10 12:51:00,
2013-07-10 05:56:00,76.1,66.9,27.43,SE,135,0.4,0.9,73,0.00,,,0.03,WUHU216HW,2013-07-10 12:56:00,
2013-07-10 06:01:00,76.3,67.1,27.43,ENE,68,0.0,0.7,73,0.00,,,0.03,WUHU216HW,2013-07-10 13:01:00,
2013-07-10 06:06:00,76.3,66.7,27.43,ENE,68,0.0,0.7,72,0.00,,,0.03,WUHU216HW,2013-07-10 13:06:00,
2013-07-10 06:11:00,76.5,66.9,27.43,East,90,0.0,0.0,72,0.00,,,0.03,WUHU216HW,2013-07-10 13:11:00,
2013-07-10 06:16:00,76.7,67.0,27.43,ESE,113,0.7,0.7,72,0.00,,,0.03,WUHU216HW,2013-07-10 13:16:00,
2013-07-10 06:21:00,76.7,67.0,27.43,SE,135,0.0,0.7,72,0.00,,,0.03,WUHU216HW,2013-07-10 13:21:00,
2013-07-10 06:26:00,76.9,66.8,27.43,SE,135,0.4,0.7,71,0.00,,,0.03,WUHU216HW,2013-07-10 13:26:00,
2013-07-10 06:31:00,77.0,67.0,27.44,SE,135,0.9,1.1,71,0.00,,,0.03,WUHU216HW,2013-07-10 13:31:00,
2013-07-10 06:36:00,76.9,66.8,27.44,SE,135,1.6,1.8,71,0.00,,,0.03,WUHU216HW,2013-07-10 13:36:00,
2013-07-10 06:41:00,76.9,66.4,27.44,SE,135,0.4,2.7,70,0.00,,,0.03,WUHU216HW,2013-07-10 13:41:00,
2013-07-10 06:46:00,77.0,66.6,27.44,SSE,158,0.4,2.7,70,0.00,,,0.03,WUHU216HW,2013-07-10 13:46:00,
2013-07-10 06:51:00,77.0,66.6,27.44,SSW,203,0.4,1.6,70,0.00,,,0.03,WUHU216HW,2013-07-10 13:51:00,
2013-07-10 06:56:00,77.2,66.3,27.44,SE,135,0.4,1.3,69,0.00,,,0.03,WUHU216HW,2013-07-10 13:56:00,
2013-07-10 07:01:00,77.4,66.5,27.44,ESE,113,0.0,1.1,69,0.00,,,0.03,WUHU216HW,2013-07-10 14:01:00,
2013-07-10 07:06:00,77.8,66.3,27.44,SW,225,0.4,0.7,68,0.00,,,0.03,WUHU216HW,2013-07-10 14:06:00,
2013-07-10 07:11:00,78.1,66.7,27.44,SSW,203,0.2,0.9,68,0.00,,,0.03,WUHU216HW,2013-07-10 14:11:00,
2013-07-10 07:16:00,78.1,66.7,27.44,SSE,158,1.1,1.1,68,0.00,,,0.03,WUHU216HW,2013-07-10 14:16:00,
2013-07-10 07:21:00,78.3,66.9,27.44,SE,135,0.0,1.1,68,0.00,,,0.03,WUHU216HW,2013-07-10 14:21:00,
2013-07-10 07:26:00,78.7,66.8,27.45,SE,135,0.9,0.9,67,0.00,,,0.03,WUHU216HW,2013-07-10 14:26:00,
2013-07-10 07:31:00,78.7,66.8,27.45,SE,135,0.9,1.3,67,0.00,,,0.03,WUHU216HW,2013-07-10 14:31:00,
2013-07-10 07:36:00,78.8,66.5,27.44,NNE,23,0.7,1.3,66,0.00,,,0.03,WUHU216HW,2013-07-10 14:36:00,
2013-07-10 07:41:00,79.0,66.7,27.44,SW,225,0.4,1.1,66,0.00,,,0.03,WUHU216HW,2013-07-10 14:41:00,
2013-07-10 07:46:00,79.4,67.1,27.44,SE,135,0.4,1.1,66,0.00,,,0.03,WUHU216HW,2013-07-10 14:46:00,
2013-07-10 07:51:00,79.6,66.8,27.44,NNE,23,0.0,0.7,65,0.00,,,0.03,WUHU216HW,2013-07-10 14:51:00,
2013-07-10 07:56:00,79.7,66.9,27.44,ENE,68,0.0,0.7,65,0.00,,,0.03,WUHU216HW,2013-07-10 14:56:00,
2013-07-10 08:01:00,79.9,67.1,27.44,ESE,113,0.0,1.1,65,0.00,,,0.03,WUHU216HW,2013-07-10 15:01:00,
2013-07-10 08:06:00,80.1,67.2,27.45,WSW,248,1.8,1.8,65,0.00,,,0.03,WUHU216HW,2013-07-10 15:06:00,
2013-07-10 08:11:00,80.3,67.0,27.45,SW,225,0.0,1.8,64,0.00,,,0.03,WUHU216HW,2013-07-10 15:11:00,
2013-07-10 08:16:00,80.6,67.3,27.45,WNW,293,0.7,1.8,64,0.00,,,0.03,WUHU216HW,2013-07-10 15:16:00,
2013-07-10 08:21:00,80.6,66.9,27.44,West,270,0.7,0.9,63,0.00,,,0.03,WUHU216HW,2013-07-10 15:21:00,
2013-07-10 08:26:00,80.8,67.1,27.44,North,0,1.1,1.1,63,0.00,,,0.03,WUHU216HW,2013-07-10 15:26:00,
2013-07-10 08:31:00,81.0,67.2,27.44,North,0,0.4,1.1,63,0.00,,,0.03,WUHU216HW,2013-07-10 15:31:00,
2013-07-10 08:36:00,81.4,67.5,27.44,North,0,1.1,1.1,63,0.00,,,0.03,WUHU216HW,2013-07-10 15:36:00,
2013-07-10 08:41:00,81.9,67.6,27.44,SSE,158,0.9,2.5,62,0.00,,,0.03,WUHU216HW,2013-07-10 15:41:00,
2013-07-10 08:46:00,82.1,67.7,27.44,NNW,338,0.7,2.5,62,0.00,,,0.03,WUHU216HW,2013-07-10 15:46:00,
2013-07-10 08:51:00,82.1,67.2,27.44,West,270,1.1,1.1,61,0.00,,,0.03,WUHU216HW,2013-07-10 15:51:00,
2013-07-10 08:56:00,82.4,67.6,27.44,ESE,113,0.9,2.0,61,0.00,,,0.03,WUHU216HW,2013-07-10 15:56:00,
2013-07-10 09:01:00,82.6,67.3,27.44,WSW,248,0.4,2.0,60,0.00,,,0.03,WUHU216HW,2013-07-10 16:01:00,
2013-07-10 09:06:00,82.8,68.0,27.44,SE,135,0.4,1.3,61,0.00,,,0.03,WUHU216HW,2013-07-10 16:06:00,
2013-07-10 09:11:00,83.2,68.3,27.44,South,180,0.7,1.3,61,0.00,,,0.03,WUHU216HW,2013-07-10 16:11:00,
2013-07-10 09:16:00,83.3,67.5,27.44,NNE,23,0.9,1.3,59,0.00,,,0.03,WUHU216HW,2013-07-10 16:16:00,
2013-07-10 09:21:00,83.7,68.4,27.44,SSE,158,0.4,1.1,60,0.00,,,0.03,WUHU216HW,2013-07-10 16:21:00,
2013-07-10 09:26:00,84.1,68.2,27.44,SW,225,1.1,2.5,59,0.00,,,0.03,WUHU216HW,2013-07-10 16:26:00,
2013-07-10 09:31:00,84.4,68.6,27.44,South,180,1.1,2.5,59,0.00,,,0.03,WUHU216HW,2013-07-10 16:31:00,
2013-07-10 09:36:00,84.8,68.4,27.44,WSW,248,1.3,1.8,58,0.00,,,0.03,WUHU216HW,2013-07-10 16:36:00,
2013-07-10 09:41:00,85.1,68.7,27.44,South,180,0.9,2.2,58,0.00,,,0.03,WUHU216HW,2013-07-10 16:41:00,
2013-07-10 09:46:00,85.7,68.7,27.44,West,270,0.9,2.2,57,0.00,,,0.03,WUHU216HW,2013-07-10 16:46:00,
2013-07-10 09:51:00,86.2,68.7,27.44,NE,45,0.4,3.6,56,0.00,,,0.03,WUHU216HW,2013-07-10 16:51:00,
2013-07-10 09:56:00,86.4,68.3,27.44,WSW,248,1.3,3.6,55,0.00,,,0.03,WUHU216HW,2013-07-10 16:56:00,
2013-07-10 10:01:00,86.4,67.8,27.44,WNW,293,2.0,2.0,54,0.00,,,0.03,WUHU216HW,2013-07-10 17:01:00,
2013-07-10 10:06:00,86.4,67.8,27.44,SW,225,0.4,2.0,54,0.00,,,0.03,WUHU216HW,2013-07-10 17:06:00,
2013-07-10 10:11:00,86.9,68.3,27.44,ESE,113,1.1,2.5,54,0.00,,,0.03,WUHU216HW,2013-07-10 17:11:00,
2013-07-10 10:16:00,87.8,68.6,27.44,SSW,203,1.8,2.5,53,0.00,,,0.03,WUHU216HW,2013-07-10 17:16:00,
2013-07-10 10:21:00,88.2,68.4,27.43,WSW,248,0.7,2.5,52,0.00,,,0.03,WUHU216HW,2013-07-10 17:21:00,
2013-07-10 10:26:00,88.2,67.9,27.43,SW,225,0.4,2.5,51,0.00,,,0.03,WUHU216HW,2013-07-10 17:26:00,
2013-07-10 10:31:00,88.2,67.9,27.43,NNE,23,0.9,2.2,51,0.00,,,0.03,WUHU216HW,2013-07-10 17:31:00,
2013-07-10 10:36:00,88.4,68.0,27.43,North,0,0.4,1.8,51,0.00,,,0.03,WUHU216HW,2013-07-10 17:36:00,
2013-07-10 10:41:00,88.6,67.6,27.43,NNW,338,1.8,1.8,50,0.00,,,0.03,WUHU216HW,2013-07-10 17:41:00,
2013-07-10 10:46:00,88.7,67.8,27.43,ESE,113,0.7,1.8,50,0.00,,,0.03,WUHU216HW,2013-07-10 17:46:00,
2013-07-10 10:51:00,89.5,68.4,27.43,SSE,158,0.4,2.5,50,0.00,,,0.03,WUHU216HW,2013-07-10 17:51:00,
2013-07-10 10:56:00,90.2,68.4,27.43,SW,225,2.2,2.5,49,0.00,,,0.03,WUHU216HW,2013-07-10 17:56:00,
2013-07-10 11:01:00,90.5,68.8,27.42,SSW,203,1.8,2.2,49,0.00,,,0.03,WUHU216HW,2013-07-10 18:01:00,
2013-07-10 11:06:00,90.9,68.4,27.42,SSE,158,1.3,3.1,48,0.00,,,0.03,WUHU216HW,2013-07-10 18:06:00,
2013-07-10 11:11:00,91.3,68.8,27.42,SSE,158,1.3,3.1,48,0.00,,,0.03,WUHU216HW,2013-07-10 18:11:00,
2013-07-10 11:16:00,91.6,68.4,27.42,SSW,203,0.7,4.0,47,0.00,,,0.03,WUHU216HW,2013-07-10 18:16:00,
2013-07-10 11:21:00,91.8,68.0,27.42,WSW,248,2.5,4.0,46,0.00,,,0.03,WUHU216HW,2013-07-10 18:21:00,
2013-07-10 11:26:00,91.4,67.6,27.42,WSW,248,1.6,2.7,46,0.00,,,0.03,WUHU216HW,2013-07-10 18:26:00,
2013-07-10 11:31:00,91.3,67.4,27.41,NW,315,1.1,3.1,46,0.00,,,0.03,WUHU216HW,2013-07-10 18:31:00,
2013-07-10 11:36:00,91.1,67.3,27.41,WSW,248,1.8,3.1,46,0.00,,,0.03,WUHU216HW,2013-07-10 18:36:00,
2013-07-10 11:41:00,91.4,68.2,27.41,SW,225,1.8,3.1,47,0.00,,,0.03,WUHU216HW,2013-07-10 18:41:00,
2013-07-10 11:46:00,91.8,68.0,27.41,South,180,2.2,3.1,46,0.00,,,0.03,WUHU216HW,2013-07-10 18:46:00,
2013-07-10 11:51:00,92.0,68.1,27.41,SSW,203,2.5,2.5,46,0.00,,,0.03,WUHU216HW,2013-07-10 18:51:00,
2013-07-10 11:56:00,92.3,68.4,27.40,SW,225,1.8,2.7,46,0.00,,,0.03,WUHU216HW,2013-07-10 18:56:00,
2013-07-10 12:01:00,92.5,68.0,27.40,SW,225,3.8,3.8,45,0.00,,,0.03,WUHU216HW,2013-07-10 19:01:00,
2013-07-10 12:06:00,92.5,68.0,27.40,SW,225,0.7,4.9,45,0.00,,,0.03,WUHU216HW,2013-07-10 19:06:00,
2013-07-10 12:11:00,92.5,68.0,27.40,SW,225,2.0,4.9,45,0.00,,,0.03,WUHU216HW,2013-07-10 19:11:00,
2013-07-10 12:16:00,92.9,68.2,27.40,SE,135,1.6,3.8,45,0.00,,,0.03,WUHU216HW,2013-07-10 19:16:00,
2013-07-10 12:21:00,93.2,68.0,27.40,SW,225,2.2,3.8,44,0.00,,,0.03,WUHU216HW,2013-07-10 19:21:00,
2013-07-10 12:26:00,93.4,68.1,27.40,SSW,203,0.4,2.5,44,0.00,,,0.03,WUHU216HW,2013-07-10 19:26:00,
2013-07-10 12:31:00,93.6,67.6,27.39,WSW,248,2.5,4.7,43,0.00,,,0.03,WUHU216HW,2013-07-10 19:31:00,
2013-07-10 12:36:00,93.4,67.4,27.39,SW,225,3.1,4.7,43,0.00,,,0.03,WUHU216HW,2013-07-10 19:36:00,
2013-07-10 12:41:00,93.6,67.6,27.39,SW,225,1.6,3.1,43,0.00,,,0.03,WUHU216HW,2013-07-10 19:41:00,
2013-07-10 12:46:00,94.0,68.0,27.39,NW,315,0.9,3.4,43,0.00,,,0.03,WUHU216HW,2013-07-10 19:46:00,
2013-07-10 12:51:00,94.0,67.3,27.38,NNW,338,0.9,3.4,42,0.00,,,0.03,WUHU216HW,2013-07-10 19:51:00,
2013-07-10 12:56:00,94.5,67.8,27.38,SSW,203,2.9,4.0,42,0.00,,,0.03,WUHU216HW,2013-07-10 19:56:00,
2013-07-10 13:01:00,94.7,67.3,27.38,WSW,248,1.8,4.0,41,0.00,,,0.03,WUHU216HW,2013-07-10 20:01:00,
2013-07-10 13:06:00,94.3,67.6,27.37,West,270,1.6,2.7,42,0.00,,,0.03,WUHU216HW,2013-07-10 20:06:00,
2013-07-10 13:11:00,95.0,67.6,27.37,WSW,248,2.5,3.6,41,0.00,,,0.03,WUHU216HW,2013-07-10 20:11:00,
2013-07-10 13:16:00,95.4,68.0,27.37,WSW,248,2.7,3.6,41,0.00,,,0.03,WUHU216HW,2013-07-10 20:16:00,
2013-07-10 13:21:00,96.1,68.0,27.37,WSW,248,1.1,4.5,40,0.00,,,0.03,WUHU216HW,2013-07-10 20:21:00,
2013-07-10 13:26:00,96.5,68.2,27.37,SW,225,1.8,4.5,40,0.00,,,0.03,WUHU216HW,2013-07-10 20:26:00,
2013-07-10 13:31:00,96.7,67.6,27.36,SSE,158,3.4,3.4,39,0.00,,,0.03,WUHU216HW,2013-07-10 20:31:00,
2013-07-10 13:36:00,96.7,66.8,27.36,South,180,2.0,3.6,38,0.00,,,0.03,WUHU216HW,2013-07-10 20:36:00,
2013-07-10 13:41:00,96.7,67.6,27.36,SE,135,2.2,3.6,39,0.00,,,0.03,WUHU216HW,2013-07-10 20:41:00,
2013-07-10 13:45:00,96.8,67.0,27.36,West,270,1.1,2.2,38,0.00,,,0.03,WUHU216HW,2013-07-10 20:45:00,
2013-07-10 13:50:00,96.8,67.0,27.35,SW,225,1.3,2.9,38,0.00,,,0.03,WUHU216HW,2013-07-10 20:50:00,
2013-07-10 13:55:00,97.2,66.4,27.35,WSW,248,4.0,6.5,37,0.00,,,0.03,WUHU216HW,2013-07-10 20:55:00,
2013-07-10 14:00:00,97.4,67.4,27.35,WSW,248,4.5,6.5,38,0.00,,,0.03,WUHU216HW,2013-07-10 21:00:00,
2013-07-10 14:05:00,97.4,65.8,27.34,SSW,203,2.2,4.5,36,0.00,,,0.03,WUHU216HW,2013-07-10 21:05:00,
2013-07-10 14:10:00,97.6,65.9,27.34,SW,225,2.5,3.8,36,0.00,,,0.03,WUHU216HW,2013-07-10 21:10:00,
2013-07-10 14:15:00,98.1,65.6,27.34,WNW,293,3.4,3.8,35,0.00,,,0.03,WUHU216HW,2013-07-10 21:15:00,
2013-07-10 14:20:00,98.3,64.9,27.33,SW,225,2.5,3.4,34,0.00,,,0.03,WUHU216HW,2013-07-10 21:20:00,
2013-07-10 14:25:00,97.9,64.6,27.34,NNW,338,4.0,4.0,34,0.00,,,0.03,WUHU216HW,2013-07-10 21:25:00,
2013-07-10 14:30:00,97.4,64.1,27.33,NW,315,2.5,4.0,34,0.00,,,0.03,WUHU216HW,2013-07-10 21:30:00,
2013-07-10 14:35:00,96.8,64.4,27.33,WNW,293,1.8,3.4,35,0.00,,,0.03,WUHU216HW,2013-07-10 21:35:00,
2013-07-10 14:40:00,96.7,63.5,27.33,West,270,5.1,5.1,34,0.00,,,0.03,WUHU216HW,2013-07-10 21:40:00,
2013-07-10 14:45:00,96.7,64.3,27.32,WSW,248,2.5,5.1,35,0.00,,,0.03,WUHU216HW,2013-07-10 21:45:00,
2013-07-10 14:50:00,96.7,63.5,27.32,WNW,293,2.2,3.4,34,0.00,,,0.03,WUHU216HW,2013-07-10 21:50:00,
2013-07-10 14:55:00,96.8,63.6,27.32,NNW,338,1.8,3.4,34,0.00,,,0.03,WUHU216HW,2013-07-10 21:55:00,
2013-07-10 15:00:00,97.0,63.8,27.32,WSW,248,2.5,3.6,34,0.00,,,0.03,WUHU216HW,2013-07-10 22:00:00,
2013-07-10 15:05:00,97.6,64.3,27.31,WNW,293,3.4,4.0,34,0.00,,,0.03,WUHU216HW,2013-07-10 22:05:00,
2013-07-10 15:10:00,97.6,63.5,27.31,WNW,293,2.5,4.0,33,0.00,,,0.03,WUHU216HW,2013-07-10 22:10:00,
2013-07-10 15:15:00,97.2,63.9,27.32,WNW,293,3.4,4.5,34,0.00,,,0.03,WUHU216HW,2013-07-10 22:15:00,
2013-07-10 15:20:00,97.4,64.1,27.31,WSW,248,2.2,4.5,34,0.00,,,0.03,WUHU216HW,2013-07-10 22:20:00,
2013-07-10 15:25:00,97.4,63.3,27.32,WSW,248,3.4,3.4,33,0.00,,,0.03,WUHU216HW,2013-07-10 22:25:00,
2013-07-10 15:30:00,97.0,62.9,27.32,WSW,248,3.6,3.6,33,0.00,,,0.03,WUHU216HW,2013-07-10 22:30:00,
2013-07-10 15:35:00,96.5,63.3,27.32,WSW,248,2.5,4.3,34,0.00,,,0.03,WUHU216HW,2013-07-10 22:35:00,
2013-07-10 15:40:00,96.3,64.0,27.32,West,270,1.8,4.3,35,0.00,,,0.03,WUHU216HW,2013-07-10 22:40:00,
2013-07-10 15:45:00,96.3,64.0,27.31,WSW,248,3.1,3.1,35,0.00,,,0.03,WUHU216HW,2013-07-10 22:45:00,
2013-07-10 15:50:00,96.1,64.6,27.31,WSW,248,2.9,3.1,36,0.00,,,0.03,WUHU216HW,2013-07-10 22:50:00,
2013-07-10 15:55:00,95.6,66.6,27.31,SE,135,1.1,3.1,39,0.00,,,0.03,WUHU216HW,2013-07-10 22:55:00,
2013-07-10 16:00:00,94.9,66.8,27.32,SSW,203,1.3,2.5,40,0.00,,,0.03,WUHU216HW,2013-07-10 23:00:00,
2013-07-10 16:05:00,94.3,66.3,27.32,SE,135,2.2,3.8,40,0.00,,,0.03,WUHU216HW,2013-07-10 23:05:00,
2013-07-10 16:10:00,93.8,66.5,27.33,South,180,4.3,4.3,41,0.00,,,0.03,WUHU216HW,2013-07-10 23:10:00,
2013-07-10 16:15:00,92.7,65.5,27.33,ESE,113,1.8,5.4,41,0.00,,,0.03,WUHU216HW,2013-07-10 23:15:00,
2013-07-10 16:20:00,92.2,65.7,27.34,SSE,158,2.7,5.4,42,0.00,,,0.03,WUHU216HW,2013-07-10 23:20:00,
2013-07-10 16:25:00,91.6,65.8,27.35,West,270,1.6,2.7,43,0.00,,,0.03,WUHU216HW,2013-07-10 23:25:00,
2013-07-10 16:30:00,91.4,65.7,27.35,NNW,338,0.7,1.8,43,0.00,,,0.03,WUHU216HW,2013-07-10 23:30:00,
2013-07-10 16:35:00,91.1,66.0,27.35,SW,225,0.9,1.3,44,0.00,,,0.03,WUHU216HW,2013-07-10 23:35:00,
2013-07-10 16:40:00,90.7,65.7,27.35,SSE,158,0.0,1.1,44,0.00,,,0.03,WUHU216HW,2013-07-10 23:40:00,
2013-07-10 16:45:00,90.7,65.7,27.34,ENE,68,0.2,1.3,44,0.00,,,0.03,WUHU216HW,2013-07-10 23:45:00,
2013-07-10 16:50:00,90.7,66.3,27.34,SE,135,0.7,1.3,45,0.00,,,0.03,WUHU216HW,2013-07-10 23:50:00,
2013-07-10 16:55:00,90.4,66.0,27.34,ESE,113,2.9,2.9,45,0.00,,,0.03,WUHU216HW,2013-07-10 23:55:00,
2013-07-10 17:00:00,90.0,65.7,27.34,South,180,0.4,2.9,45,0.00,,,0.03,WUHU216HW,2013-07-11 00:00:00,
2013-07-10 17:05:00,90.0,66.3,27.34,ENE,68,0.0,2.2,46,0.00,,,0.03,WUHU216HW,2013-07-11 00:05:00,
2013-07-10 17:10:00,90.0,66.3,27.34,South,180,0.9,0.9,46,0.00,,,0.03,WUHU216HW,2013-07-11 00:10:00,
2013-07-10 17:15:00,90.0,66.3,27.34,South,180,0.7,1.3,46,0.00,,,0.03,WUHU216HW,2013-07-11 00:15:00,
2013-07-10 17:20:00,89.6,66.0,27.35,SW,225,2.5,3.8,46,0.00,,,0.03,WUHU216HW,2013-07-11 00:20:00,
2013-07-10 17:25:00,88.9,65.3,27.35,West,270,1.8,3.8,46,0.00,,,0.03,WUHU216HW,2013-07-11 00:25:00,
2013-07-10 17:30:00,88.6,65.7,27.35,WSW,248,1.6,4.7,47,0.00,,,0.03,WUHU216HW,2013-07-11 00:30:00,
2013-07-10 17:35:00,88.2,65.3,27.35,SSE,158,1.8,4.7,47,0.00,,,0.03,WUHU216HW,2013-07-11 00:35:00,
2013-07-10 17:40:00,88.0,65.3,27.35,WSW,248,1.1,4.5,47,0.00,,,0.03,WUHU216HW,2013-07-11 00:40:00,
2013-07-10 17:45:00,87.8,65.7,27.35,SW,225,0.9,1.8,48,0.00,,,0.03,WUHU216HW,2013-07-11 00:45:00,
2013-07-10 17:50:00,87.5,65.3,27.35,SW,225,0.4,2.5,48,0.00,,,0.03,WUHU216HW,2013-07-11 00:50:00,
2013-07-10 17:55:00,87.5,65.3,27.35,SE,135,0.0,2.5,48,0.00,,,0.03,WUHU216HW,2013-07-11 00:55:00,
2013-07-10 18:00:00,87.7,65.5,27.35,SSE,158,1.1,1.8,48,0.00,,,0.03,WUHU216HW,2013-07-11 01:00:00,
2013-07-10 18:05:00,87.7,65.5,27.34,SW,225,1.3,1.6,48,0.00,,,0.03,WUHU216HW,2013-07-11 01:05:00,
2013-07-10 18:10:00,87.5,65.3,27.35,SW,225,2.0,2.0,48,0.00,,,0.03,WUHU216HW,2013-07-11 01:10:00,
2013-07-10 18:15:00,87.7,65.5,27.35,SSW,203,0.4,2.0,48,0.00,,,0.03,WUHU216HW,2013-07-11 01:15:00,
2013-07-10 18:20:00,87.5,65.3,27.35,SSE,158,0.2,0.9,48,0.00,,,0.03,WUHU216HW,2013-07-11 01:20:00,
2013-07-10 18:25:00,87.5,65.3,27.35,SW,225,0.0,0.9,48,0.00,,,0.03,WUHU216HW,2013-07-11 01:25:00,
2013-07-10 18:30:00,87.5,65.3,27.35,SW,225,0.0,0.4,48,0.00,,,0.03,WUHU216HW,2013-07-11 01:30:00,
2013-07-10 18:35:00,87.5,65.3,27.35,SE,135,0.7,0.7,48,0.00,,,0.03,WUHU216HW,2013-07-11 01:35:00,
2013-07-10 18:40:00,87.5,65.3,27.35,SSE,158,0.4,0.9,48,0.00,,,0.03,WUHU216HW,2013-07-11 01:40:00,
2013-07-10 18:45:00,87.5,65.3,27.34,SE,135,0.0,0.9,48,0.00,,,0.03,WUHU216HW,2013-07-11 01:45:00,
2013-07-10 18:50:00,87.5,65.3,27.34,SSE,158,0.4,0.7,48,0.00,,,0.03,WUHU216HW,2013-07-11 01:50:00,
2013-07-10 18:55:00,87.5,65.3,27.34,SSW,203,0.0,0.7,48,0.00,,,0.03,WUHU216HW,2013-07-11 01:55:00,
2013-07-10 19:00:00,87.3,65.3,27.35,SE,135,0.2,0.9,48,0.00,,,0.03,WUHU216HW,2013-07-11 02:00:00,
2013-07-10 19:05:00,87.1,65.7,27.35,SE,135,0.2,0.9,49,0.00,,,0.03,WUHU216HW,2013-07-11 02:05:00,
2013-07-10 19:10:00,86.9,65.5,27.35,SE,135,0.4,1.1,49,0.00,,,0.03,WUHU216HW,2013-07-11 02:10:00,
2013-07-10 19:15:00,86.8,65.3,27.34,SE,135,0.7,1.1,49,0.00,,,0.03,WUHU216HW,2013-07-11 02:15:00,
2013-07-10 19:20:00,86.8,65.3,27.35,SE,135,0.0,0.9,49,0.00,,,0.03,WUHU216HW,2013-07-11 02:20:00,
2013-07-10 19:25:00,86.6,65.2,27.35,SE,135,0.4,1.1,49,0.00,,,0.03,WUHU216HW,2013-07-11 02:25:00,
2013-07-10 19:30:00,86.4,65.1,27.35,ESE,113,2.5,2.5,49,0.00,,,0.03,WUHU216HW,2013-07-11 02:30:00,
2013-07-10 19:35:00,86.0,64.7,27.35,ESE,113,1.1,4.3,49,0.00,,,0.03,WUHU216HW,2013-07-11 02:35:00,
2013-07-10 19:40:00,85.9,64.5,27.35,SW,225,0.7,4.3,49,0.00,,,0.03,WUHU216HW,2013-07-11 02:40:00,
2013-07-10 19:45:00,85.7,65.0,27.35,SE,135,1.1,1.8,50,0.00,,,0.03,WUHU216HW,2013-07-11 02:45:00,
2013-07-10 19:50:00,85.7,65.0,27.37,ENE,68,0.0,1.1,50,0.00,,,0.03,WUHU216HW,2013-07-11 02:50:00,
2013-07-10 19:55:00,85.7,65.0,27.37,ENE,68,0.0,0.7,50,0.00,,,0.03,WUHU216HW,2013-07-11 02:55:00,
2013-07-10 20:00:00,85.7,65.0,27.37,ENE,68,0.0,0.4,50,0.00,,,0.03,WUHU216HW,2013-07-11 03:00:00,
2013-07-10 20:05:00,85.7,65.0,27.37,NE,45,0.4,0.9,50,0.00,,,0.03,WUHU216HW,2013-07-11 03:05:00,
2013-07-10 20:10:00,85.5,65.3,27.38,NE,45,0.9,1.8,51,0.00,,,0.03,WUHU216HW,2013-07-11 03:10:00,
2013-07-10 20:15:00,85.3,65.3,27.37,ENE,68,0.0,1.8,51,0.00,,,0.03,WUHU216HW,2013-07-11 03:15:00,
2013-07-10 20:20:00,85.1,65.6,27.37,NE,45,0.4,1.8,52,0.00,,,0.03,WUHU216HW,2013-07-11 03:20:00,
2013-07-10 20:25:00,85.1,65.6,27.37,ENE,68,0.4,1.8,52,0.00,,,0.03,WUHU216HW,2013-07-11 03:25:00,
2013-07-10 20:30:00,85.1,65.1,27.37,East,90,0.0,1.3,51,0.00,,,0.03,WUHU216HW,2013-07-11 03:30:00,
2013-07-10 20:35:00,85.1,65.1,27.37,East,90,0.0,1.1,51,0.00,,,0.03,WUHU216HW,2013-07-11 03:35:00,
2013-07-10 20:40:00,85.1,65.6,27.38,ESE,113,1.3,1.3,52,0.00,,,0.03,WUHU216HW,2013-07-11 03:40:00,
2013-07-10 20:45:00,85.1,65.6,27.38,SE,135,0.2,1.3,52,0.00,,,0.03,WUHU216HW,2013-07-11 03:45:00,
2013-07-10 20:50:00,85.0,65.4,27.38,WNW,293,0.2,1.3,52,0.00,,,0.03,WUHU216HW,2013-07-11 03:50:00,
2013-07-10 20:55:00,85.0,65.4,27.38,NE,45,0.4,0.7,52,0.00,,,0.03,WUHU216HW,2013-07-11 03:55:00,
2013-07-10 21:00:00,84.8,65.3,27.38,SE,135,0.2,0.7,52,0.00,,,0.03,WUHU216HW,2013-07-11 04:00:00,
2013-07-10 21:01:00,84.8,65.3,27.38,SE,135,0.2,0.4,52,0.00,,,0.03,WUHU216HW,2013-07-11 04:01:00,
2013-07-10 21:06:00,84.8,65.3,27.38,ESE,113,0.0,0.4,52,0.00,,,0.03,WUHU216HW,2013-07-11 04:06:00,
2013-07-10 21:11:00,84.6,65.1,27.38,NE,45,0.0,0.4,52,0.00,,,0.03,WUHU216HW,2013-07-11 04:11:00,
2013-07-10 21:16:00,84.6,65.1,27.38,ENE,68,0.4,0.4,52,0.00,,,0.03,WUHU216HW,2013-07-11 04:16:00,
2013-07-10 21:21:00,84.6,65.1,27.38,NE,45,0.9,0.9,52,0.00,,,0.03,WUHU216HW,2013-07-11 04:21:00,
2013-07-10 21:26:00,84.6,65.6,27.38,ENE,68,0.2,0.9,53,0.00,,,0.03,WUHU216HW,2013-07-11 04:26:00,
2013-07-10 21:31:00,84.4,65.4,27.38,ENE,68,0.0,0.9,53,0.00,,,0.03,WUHU216HW,2013-07-11 04:31:00,
2013-07-10 21:36:00,84.4,65.4,27.38,NNE,23,2.0,2.0,53,0.00,,,0.03,WUHU216HW,2013-07-11 04:36:00,
2013-07-10 21:41:00,84.2,65.3,27.37,NE,45,0.7,2.0,53,0.00,,,0.03,WUHU216HW,2013-07-11 04:41:00,
2013-07-10 21:46:00,84.4,65.4,27.38,NNE,23,0.0,1.6,53,0.00,,,0.03,WUHU216HW,2013-07-11 04:46:00,
2013-07-10 21:51:00,84.2,65.8,27.37,NNE,23,0.2,0.7,54,0.00,,,0.03,WUHU216HW,2013-07-11 04:51:00,
2013-07-10 21:56:00,84.4,66.0,27.37,North,0,0.0,0.7,54,0.00,,,0.03,WUHU216HW,2013-07-11 04:56:00,
2013-07-10 22:01:00,84.2,66.3,27.37,SE,135,0.2,0.7,55,0.00,,,0.03,WUHU216HW,2013-07-11 05:01:00,
2013-07-10 22:06:00,84.2,66.3,27.37,SE,135,0.0,0.7,55,0.00,,,0.03,WUHU216HW,2013-07-11 05:06:00,
2013-07-10 22:11:00,84.2,65.8,27.38,SE,135,0.0,0.4,54,0.00,,,0.03,WUHU216HW,2013-07-11 05:11:00,
2013-07-10 22:16:00,84.2,66.3,27.38,SE,135,0.0,0.0,55,0.00,,,0.03,WUHU216HW,2013-07-11 05:16:00,
2013-07-10 22:21:00,84.2,66.3,27.39,SE,135,0.0,0.0,55,0.00,,,0.03,WUHU216HW,2013-07-11 05:21:00,
2013-07-10 22:26:00,84.1,66.2,27.39,SE,135,0.0,0.0,55,0.00,,,0.03,WUHU216HW,2013-07-11 05:26:00,
2013-07-10 22:31:00,84.1,66.2,27.39,ESE,113,0.0,0.0,55,0.00,,,0.03,WUHU216HW,2013-07-11 05:31:00,
2013-07-10 22:36:00,83.9,66.0,27.39,East,90,0.0,0.0,55,0.00,,,0.03,WUHU216HW,2013-07-11 05:36:00,
2013-07-10 22:41:00,83.9,66.0,27.40,SE,135,0.4,0.4,55,0.00,,,0.03,WUHU216HW,2013-07-11 05:41:00,
2013-07-10 22:46:00,83.9,66.0,27.40,ENE,68,0.4,0.4,55,0.00,,,0.03,WUHU216HW,2013-07-11 05:46:00,
2013-07-10 22:51:00,83.7,66.9,27.40,SE,135,0.4,0.4,57,0.00,,,0.03,WUHU216HW,2013-07-11 05:51:00,
2013-07-10 22:56:00,83.5,66.7,27.40,ENE,68,0.2,0.4,57,0.00,,,0.03,WUHU216HW,2013-07-11 05:56:00,
2013-07-10 23:01:00,83.5,67.1,27.40,ESE,113,0.7,0.7,58,0.00,,,0.03,WUHU216HW,2013-07-11 06:01:00,
2013-07-10 23:06:00,83.3,66.5,27.40,South,180,1.1,1.1,57,0.00,,,0.03,WUHU216HW,2013-07-11 06:06:00,
2013-07-10 23:11:00,83.2,66.3,27.40,ESE,113,0.4,1.1,57,0.00,,,0.03,WUHU216HW,2013-07-11 06:11:00,
2013-07-10 23:16:00,83.2,66.3,27.40,ESE,113,0.0,0.4,57,0.00,,,0.03,WUHU216HW,2013-07-11 06:16:00,
2013-07-10 23:21:00,83.2,66.8,27.41,SSE,158,0.0,0.4,58,0.00,,,0.03,WUHU216HW,2013-07-11 06:21:00,
2013-07-10 23:26:00,83.2,67.3,27.41,SE,135,0.4,0.4,59,0.00,,,0.03,WUHU216HW,2013-07-11 06:26:00,
2013-07-10 23:31:00,83.0,68.1,27.41,SSW,203,0.0,0.4,61,0.00,,,0.03,WUHU216HW,2013-07-11 06:31:00,
2013-07-10 23:36:00,83.0,68.1,27.41,SE,135,0.0,0.4,61,0.00,,,0.03,WUHU216HW,2013-07-11 06:36:00,
2013-07-10 23:41:00,82.8,68.0,27.41,SE,135,0.0,0.4,61,0.00,,,0.03,WUHU216HW,2013-07-11 06:41:00,
2013-07-10 23:46:00,82.6,68.2,27.41,SE,135,0.0,0.0,62,0.00,,,0.03,WUHU216HW,2013-07-11 06:46:00,
2013-07-10 23:51:00,82.4,68.0,27.41,SE,135,0.0,0.0,62,0.00,,,0.03,WUHU216HW,2013-07-11 06:51:00,
2013-07-10 23:56:00,82.3,67.9,27.41,ENE,68,0.4,0.9,62,0.00,,,0.03,WUHU216HW,2013-07-11 06:56:00,